This is the latest recevied weather packets stored in our database for station/object KB3KBR-WX. If no packets are shown the sender has not sent any weather packets the latest 10 day(s).
| Time | Temp. | Humidity | Pressure | Rain* | Wind** | Luminosity | Snow |
|---|---|---|---|---|---|---|---|
| 1777832699 | 13.33° C | 43% | 1011 hPa | 0 mm | - | - | - |
| 1777832370 | 13.33° C | 42% | 1011 hPa | 0 mm | - | - | - |
| 1777832038 | 13.89° C | 42% | 1011 hPa | 0 mm | - | - | - |
| 1777831737 | 13.33° C | 47% | 1011.1 hPa | 0 mm | - | - | - |
| 1777831437 | 12.78° C | 46% | 1011.2 hPa | 0 mm | - | - | - |
| 1777831137 | 12.78° C | 44% | 1011.2 hPa | 0 mm | - | - | - |
| 1777830807 | 12.78° C | 43% | 1011.3 hPa | 0 mm | - | - | - |
| 1777830510 | 12.78° C | 44% | 1011.3 hPa | 0 mm | - | - | - |
| 1777830177 | 13.33° C | 44% | 1011.4 hPa | 0 mm | - | - | - |
| 1777829880 | 12.78° C | 47% | 1011.4 hPa | 0 mm | - | - | - |
| 1777829550 | 12.78° C | 43% | 1011.5 hPa | 0 mm | - | - | - |
| 1777829217 | 12.78° C | 45% | 1011.5 hPa | 0 mm | - | - | - |
| 1777828917 | 12.78° C | 44% | 1011.6 hPa | 0 mm | - | - | - |
| 1777828587 | 12.78° C | 44% | 1011.6 hPa | 0 mm | - | - | - |
| 1777828257 | 12.22° C | 44% | 1011.6 hPa | 0 mm | - | - | - |
| 1777827927 | 12.22° C | 44% | 1011.8 hPa | 0 mm | - | - | - |
| 1777827601 | 12.22° C | 45% | 1011.9 hPa | 0 mm | - | - | - |
| 1777827267 | 12.22° C | 45% | 1011.8 hPa | 0 mm | - | - | - |
| 1777826968 | 12.22° C | 44% | 1011.9 hPa | 0 mm | - | - | - |
| 1777826639 | 11.67° C | 44% | 1012 hPa | 0 mm | - | - | - |
| 1777826337 | 11.11° C | 47% | 1012.1 hPa | 0 mm | - | - | - |
| 1777826037 | 11.11° C | 43% | 1012.1 hPa | 0 mm | - | - | - |
| 1777825707 | 11.67° C | 45% | 1012.1 hPa | 0 mm | - | - | - |
| 1777825377 | 11.11° C | 45% | 1012.3 hPa | 0 mm | - | - | - |
| 1777825208 | 11.11° C | 44% | 1012 hPa | 0 mm | - | - | - |
* Rain latest hour (hover to see other rain measurements)
** Current wind speed in m/s (hover to see current wind gust speed)